Time,TemperatureF,DewpointF,PressureIn,WindDirection,WindDirectionDegrees,WindSpeedMPH,WindSpeedGustMPH,Humidity,HourlyPrecipIn,Conditions,Clouds,dailyrainin,SolarRadiationWatts/m^2,SoftwareType,DateUTC
2013-04-23 00:02:00,31.0,29.0,-100.00,North,357,10.0,19.0,93,0.00,,,0.00,0.000000,,2013-04-23 05:02:00,
2013-04-23 00:32:00,31.0,29.0,-100.00,NNW,345,7.0,15.0,94,0.00,,,0.00,0.000000,,2013-04-23 05:32:00,
2013-04-23 00:42:00,31.0,29.0,-100.00,NNW,345,7.0,15.0,94,0.00,,,0.00,0.000000,,2013-04-23 05:42:00,
2013-04-23 00:52:00,31.0,29.0,-100.00,NNW,345,7.0,15.0,94,0.00,,,0.00,0.000000,,2013-04-23 05:52:00,
2013-04-23 01:02:00,31.0,29.0,-100.00,NNW,345,7.0,15.0,94,0.00,,,0.00,0.000000,,2013-04-23 06:02:00,
2013-04-23 01:33:00,31.0,29.0,-100.00,NNW,344,9.0,16.0,92,0.00,,,0.00,0.000000,,2013-04-23 06:33:00,
2013-04-23 01:42:00,31.0,29.0,-100.00,NNW,344,9.0,16.0,92,0.00,,,0.00,0.000000,,2013-04-23 06:42:00,
2013-04-23 01:52:00,31.0,29.0,-100.00,NNW,344,9.0,16.0,92,0.00,,,0.00,0.000000,,2013-04-23 06:52:00,
2013-04-23 02:02:00,31.0,29.0,-100.00,NNW,344,9.0,16.0,92,0.00,,,0.00,0.000000,,2013-04-23 07:02:00,
2013-04-23 02:32:00,31.0,29.0,-100.00,NNW,342,9.0,14.0,91,0.00,,,0.00,0.000000,,2013-04-23 07:32:00,
2013-04-23 02:42:00,31.0,29.0,-100.00,NNW,342,9.0,14.0,91,0.00,,,0.00,0.000000,,2013-04-23 07:42:00,
2013-04-23 02:52:00,31.0,29.0,-100.00,NNW,342,9.0,14.0,91,0.00,,,0.00,0.000000,,2013-04-23 07:52:00,
2013-04-23 03:02:00,31.0,29.0,-100.00,NNW,342,9.0,14.0,91,0.00,,,0.00,0.000000,,2013-04-23 08:02:00,
2013-04-23 03:32:00,30.0,28.0,-100.00,NNW,335,9.0,13.0,91,0.00,,,0.00,0.000000,,2013-04-23 08:32:00,
2013-04-23 03:42:00,30.0,28.0,-100.00,NNW,335,9.0,13.0,91,0.00,,,0.00,0.000000,,2013-04-23 08:42:00,
2013-04-23 03:52:00,30.0,28.0,-100.00,NNW,335,9.0,13.0,91,0.00,,,0.00,0.000000,,2013-04-23 08:52:00,
2013-04-23 04:01:00,30.0,28.0,-100.00,NNW,335,9.0,13.0,91,0.00,,,0.00,0.000000,,2013-04-23 09:01:00,
2013-04-23 04:33:00,30.0,28.0,-100.00,NNW,336,7.0,14.0,93,0.00,,,0.00,0.000000,,2013-04-23 09:33:00,
2013-04-23 04:43:00,30.0,28.0,-100.00,NNW,336,7.0,14.0,93,0.00,,,0.00,0.000000,,2013-04-23 09:43:00,
2013-04-23 04:53:00,30.0,28.0,-100.00,NNW,336,7.0,14.0,93,0.00,,,0.00,0.000000,,2013-04-23 09:53:00,
2013-04-23 05:02:00,30.0,28.0,-100.00,NNW,336,7.0,14.0,93,0.00,,,0.00,0.000000,,2013-04-23 10:02:00,
2013-04-23 05:33:00,28.0,26.0,-100.00,NW,318,7.0,10.0,91,0.00,,,0.00,0.000000,,2013-04-23 10:33:00,
2013-04-23 05:43:00,28.0,26.0,-100.00,NW,318,7.0,10.0,91,0.00,,,0.00,0.000000,,2013-04-23 10:43:00,
2013-04-23 05:52:00,28.0,26.0,-100.00,NW,318,7.0,10.0,91,0.00,,,0.00,0.000000,,2013-04-23 10:52:00,
2013-04-23 06:03:00,28.0,26.0,-100.00,NW,318,7.0,10.0,91,0.00,,,0.00,0.000000,,2013-04-23 11:03:00,
2013-04-23 06:32:00,26.0,21.0,-100.00,NW,323,9.0,12.0,82,0.00,,,-99.99,0.000000,,2013-04-23 11:32:00,
2013-04-23 06:43:00,26.0,21.0,-100.00,NW,323,9.0,12.0,82,0.00,,,-99.99,0.000000,,2013-04-23 11:43:00,
2013-04-23 06:53:00,26.0,21.0,-100.00,NW,323,9.0,12.0,82,0.00,,,-99.99,0.000000,,2013-04-23 11:53:00,
2013-04-23 07:02:00,26.0,21.0,-100.00,NW,323,9.0,12.0,82,0.00,,,-99.99,0.000000,,2013-04-23 12:02:00,
2013-04-23 08:32:00,29.0,19.0,-100.00,NW,325,11.0,15.0,67,-99.99,,,0.00,233.000000,,2013-04-23 13:32:00,
2013-04-23 08:42:00,29.0,19.0,-100.00,NW,325,11.0,15.0,67,-99.99,,,0.00,233.000000,,2013-04-23 13:42:00,
2013-04-23 08:52:00,29.0,19.0,-100.00,NW,325,11.0,15.0,67,-99.99,,,0.00,233.000000,,2013-04-23 13:52:00,
2013-04-23 09:02:00,29.0,19.0,-100.00,NW,325,11.0,15.0,67,-99.99,,,0.00,233.000000,,2013-04-23 14:02:00,
2013-04-23 09:32:00,32.0,20.0,-100.00,NW,310,8.0,14.0,62,0.00,,,0.00,466.000000,,2013-04-23 14:32:00,
2013-04-23 09:42:00,32.0,20.0,-100.00,NW,310,8.0,14.0,62,0.00,,,0.00,466.000000,,2013-04-23 14:42:00,
2013-04-23 09:52:00,32.0,20.0,-100.00,NW,310,8.0,14.0,62,0.00,,,0.00,466.000000,,2013-04-23 14:52:00,
2013-04-23 10:01:00,32.0,20.0,-100.00,NW,310,8.0,14.0,62,0.00,,,0.00,466.000000,,2013-04-23 15:01:00,
2013-04-23 10:32:00,34.0,20.0,-100.00,WNW,302,10.0,15.0,56,0.11,,,0.11,689.000000,,2013-04-23 15:32:00,
2013-04-23 10:43:00,34.0,20.0,-100.00,WNW,302,10.0,15.0,56,0.11,,,0.11,689.000000,,2013-04-23 15:43:00,
2013-04-23 10:53:00,34.0,20.0,-100.00,WNW,302,10.0,15.0,56,0.11,,,0.11,689.000000,,2013-04-23 15:53:00,
2013-04-23 11:03:00,34.0,20.0,-100.00,WNW,302,10.0,15.0,56,0.11,,,0.11,689.000000,,2013-04-23 16:03:00,
2013-04-23 11:34:00,37.0,21.0,-100.00,NW,316,9.0,14.0,51,0.05,,,0.16,875.000000,,2013-04-23 16:34:00,
2013-04-23 11:43:00,37.0,21.0,-100.00,NW,316,9.0,14.0,51,0.05,,,0.16,875.000000,,2013-04-23 16:43:00,
2013-04-23 11:53:00,37.0,21.0,-100.00,NW,316,9.0,14.0,51,0.05,,,0.16,875.000000,,2013-04-23 16:53:00,
2013-04-23 12:02:00,37.0,21.0,-100.00,NW,316,9.0,14.0,51,0.05,,,0.16,875.000000,,2013-04-23 17:02:00,
2013-04-23 12:33:00,40.0,22.0,-100.00,NW,308,10.0,14.0,48,0.01,,,0.17,1009.000000,,2013-04-23 17:33:00,
2013-04-23 12:43:00,40.0,22.0,-100.00,NW,308,10.0,14.0,48,0.01,,,0.17,1009.000000,,2013-04-23 17:43:00,
2013-04-23 12:53:00,40.0,22.0,-100.00,NW,308,10.0,14.0,48,0.01,,,0.17,1009.000000,,2013-04-23 17:53:00,
2013-04-23 13:02:00,40.0,22.0,-100.00,NW,308,10.0,14.0,48,0.01,,,0.17,1009.000000,,2013-04-23 18:02:00,
2013-04-23 13:32:00,41.0,19.0,-100.00,NW,315,12.0,18.0,41,0.00,,,0.17,1093.000000,,2013-04-23 18:32:00,
2013-04-23 13:42:00,41.0,19.0,-100.00,NW,315,12.0,18.0,41,0.00,,,0.17,1093.000000,,2013-04-23 18:42:00,
2013-04-23 13:52:00,41.0,19.0,-100.00,NW,315,12.0,18.0,41,0.00,,,0.17,1093.000000,,2013-04-23 18:52:00,
2013-04-23 14:02:00,41.0,19.0,-100.00,NW,315,12.0,18.0,41,0.00,,,0.17,1093.000000,,2013-04-23 19:02:00,
2013-04-23 14:32:00,41.0,15.0,-100.00,NW,314,14.0,18.0,35,0.00,,,0.17,1099.000000,,2013-04-23 19:32:00,
2013-04-23 14:42:00,41.0,15.0,-100.00,NW,314,14.0,18.0,35,0.00,,,0.17,1099.000000,,2013-04-23 19:42:00,
2013-04-23 14:52:00,41.0,15.0,-100.00,NW,314,14.0,18.0,35,0.00,,,0.17,1099.000000,,2013-04-23 19:52:00,
2013-04-23 15:02:00,41.0,15.0,-100.00,NW,314,14.0,18.0,35,0.00,,,0.17,1099.000000,,2013-04-23 20:02:00,
2013-04-23 15:32:00,43.0,17.0,-100.00,NNW,339,11.0,19.0,35,0.00,,,0.17,1036.000000,,2013-04-23 20:32:00,
2013-04-23 15:42:00,43.0,17.0,-100.00,NNW,339,11.0,19.0,35,0.00,,,0.17,1036.000000,,2013-04-23 20:42:00,
2013-04-23 15:52:00,43.0,17.0,-100.00,NNW,339,11.0,19.0,35,0.00,,,0.17,1036.000000,,2013-04-23 20:52:00,
2013-04-23 16:02:00,43.0,17.0,-100.00,NNW,339,11.0,19.0,35,0.00,,,0.17,1036.000000,,2013-04-23 21:02:00,
2013-04-23 16:33:00,42.0,15.0,-100.00,NNW,328,12.0,16.0,33,0.00,,,0.17,917.000000,,2013-04-23 21:33:00,
2013-04-23 16:43:00,42.0,15.0,-100.00,NNW,328,12.0,16.0,33,0.00,,,0.17,917.000000,,2013-04-23 21:43:00,
2013-04-23 16:52:00,42.0,15.0,-100.00,NNW,328,12.0,16.0,33,0.00,,,0.17,917.000000,,2013-04-23 21:52:00,
2013-04-23 17:03:00,42.0,15.0,-100.00,NNW,328,12.0,16.0,33,0.00,,,0.17,917.000000,,2013-04-23 22:03:00,
2013-04-23 17:33:00,42.0,11.0,-100.00,NNW,329,12.0,17.0,28,0.00,,,0.17,740.000000,,2013-04-23 22:33:00,
2013-04-23 17:42:00,42.0,11.0,-100.00,NNW,329,12.0,17.0,28,0.00,,,0.17,740.000000,,2013-04-23 22:42:00,
2013-04-23 17:52:00,42.0,11.0,-100.00,NNW,329,12.0,17.0,28,0.00,,,0.17,740.000000,,2013-04-23 22:52:00,
2013-04-23 18:03:00,42.0,11.0,-100.00,NNW,329,12.0,17.0,28,0.00,,,0.17,740.000000,,2013-04-23 23:03:00,
2013-04-23 18:32:00,42.0,14.0,-100.00,NW,323,9.0,16.0,31,0.00,,,0.17,522.000000,,2013-04-23 23:32:00,
2013-04-23 18:42:00,42.0,14.0,-100.00,NW,323,9.0,16.0,31,0.00,,,0.17,522.000000,,2013-04-23 23:42:00,
2013-04-23 18:52:00,42.0,14.0,-100.00,NW,323,9.0,16.0,31,0.00,,,0.17,522.000000,,2013-04-23 23:52:00,
2013-04-23 19:01:00,42.0,14.0,-100.00,NW,323,9.0,16.0,31,0.00,,,0.17,522.000000,,2013-04-24 00:01:00,
2013-04-23 20:32:00,36.0,15.0,-100.00,NW,324,6.0,10.0,42,-99.99,,,0.17,67.000000,,2013-04-24 01:32:00,
2013-04-23 20:43:00,36.0,15.0,-100.00,NW,324,6.0,10.0,42,-99.99,,,0.17,67.000000,,2013-04-24 01:43:00,
2013-04-23 20:52:00,36.0,15.0,-100.00,NW,324,6.0,10.0,42,-99.99,,,0.17,67.000000,,2013-04-24 01:52:00,
2013-04-23 21:02:00,36.0,15.0,-100.00,NW,324,6.0,10.0,42,-99.99,,,0.17,67.000000,,2013-04-24 02:02:00,
2013-04-23 21:08:00,34.0,18.0,-100.00,West,269,6.0,8.0,51,0.00,,,0.17,1.000000,,2013-04-24 02:08:00,
2013-04-23 21:42:00,34.0,18.0,-100.00,West,269,6.0,8.0,51,0.00,,,0.17,1.000000,,2013-04-24 02:42:00,
2013-04-23 21:50:00,34.0,18.0,-100.00,West,269,6.0,8.0,51,0.00,,,0.17,1.000000,,2013-04-24 02:50:00,
2013-04-23 22:00:00,34.0,18.0,-100.00,West,269,6.0,8.0,51,0.00,,,0.17,1.000000,,2013-04-24 03:00:00,
2013-04-23 22:43:00,32.0,19.0,-100.00,West,261,6.0,9.0,57,0.00,,,0.17,0.000000,,2013-04-24 03:43:00,
2013-04-23 22:53:00,32.0,19.0,-100.00,West,261,6.0,9.0,57,0.00,,,0.17,0.000000,,2013-04-24 03:53:00,
2013-04-23 23:01:00,32.0,19.0,-100.00,West,261,6.0,9.0,57,0.00,,,0.17,0.000000,,2013-04-24 04:01:00,
2013-04-23 23:03:00,32.0,19.0,-100.00,West,261,6.0,9.0,57,0.00,,,0.17,0.000000,,2013-04-24 04:03:00,
2013-04-23 23:33:00,30.0,18.0,-100.00,West,265,6.0,8.0,61,0.00,,,0.17,0.000000,,2013-04-24 04:33:00,
2013-04-23 23:43:00,30.0,18.0,-100.00,West,265,6.0,8.0,61,0.00,,,0.17,0.000000,,2013-04-24 04:43:00,
2013-04-23 23:53:00,30.0,18.0,-100.00,West,265,6.0,8.0,61,0.00,,,0.17,0.000000,,2013-04-24 04:53:00,